Regional Weather Roundup
Issued by NWS Charleston, WV

Home | Current Version | Previous Version | Graphics & Text | Print | Product List | Glossary On
Versions: 1 2 3 4 5 6 7 8 9 10 11 12 13 14 15 16 17 18 19 20 21 22 23 24 25 26 27 28 29 30 31 32 33 34 35 36 37 38 39 40 41 42 43 44 45 46 47 48 49 50
000
ASUS41 KRLX 210810
RWRRLX
West Virginia Regional Weather Roundup
National Weather Service Charleston WV
300 AM EST SAT JAN 21 2017

Note: "fair" indicates few or no clouds below 12,000 feet with no
significant weather and/or obstructions to visibility.

WVZ003-210900-
Northern Panhandle of West Virginia

CITY           SKY/WX    TMP DP  RH WIND       PRES   REMARKS
WHEELING       CLEAR     50  47  89 S5        29.83R
$$

WVZ009-210900-
Northwest West Virginia

CITY           SKY/WX    TMP DP  RH WIND       PRES   REMARKS
PARKERSBURG    MOCLDY    43  43 100 CALM      29.85S FOG
$$

WVZ006-210900-
Western West Virginia

CITY           SKY/WX    TMP DP  RH WIND       PRES   REMARKS
HUNTINGTON     CLOUDY    47  45  93 CALM      29.81R
$$

WVZ015-210900-
West Central West Virginia

CITY           SKY/WX    TMP DP  RH WIND       PRES   REMARKS
CHARLESTON     PTCLDY    47  46  97 CALM      29.83S
$$

WVZ022-031-210900-
North Central West Virginia

CITY           SKY/WX    TMP DP  RH WIND       PRES   REMARKS
CLARKSBURG     FOG       43  42  97 CALM      29.85R VSB 1/2
MORGANTOWN     CLEAR     44  42  93 CALM      29.85S FOG
$$

WVZ025-035-042-045-210900-
Southern West Virginia

CITY           SKY/WX    TMP DP  RH WIND       PRES   REMARKS
BECKLEY        CLEAR     49  44  83 CALM      29.88S
LOGAN            N/A     55  48  76 CALM      29.84S
BLUEFIELD      CLEAR     51  44  77 SW5       29.90R
LEWISBURG      FOG       40  39  99 CALM      29.90S VSB 1/2
$$

WVZ047-210900-
Northern Mountains of West Virginia

CITY           SKY/WX    TMP DP  RH WIND       PRES   REMARKS
ELKINS         FOG       37  35  92 CALM      29.88S VSB 1/2
$$

WVZ052-210900-
Eastern Panhandle of West Virginia

CITY           SKY/WX    TMP DP  RH WIND       PRES   REMARKS
MARTINSBURG    FOG       42  41  96 CALM      29.91R VSB 1/4
PETERSBURG     FOG       38  38 100 CALM      29.91R VSB 1/2
$$




USA.gov is the U.S. government's official web portal to all federal, state and local government web resources and services.